{"data":{"norad_id":36036,"intl_designator":"2009-059A","name":"SMOS","alt_names":[],"object_type":"PAYLOAD","status":"ACTIVE","operator":null,"country":"ESA","launch_date":"2009-11-02","launch_site_code":"PLMSC","launch_vehicle":null,"mission":null,"orbit_class":"UNKNOWN","rcs_meters":2.8692,"size_class":null,"mass_kg":null,"dimensions":null,"purposes":["earth_obs"],"wikipedia_slug":null,"has_3d_model":false,"image_url":null,"decayed_at":null,"tle_current":{"epoch":"2026-05-25T02:48:18.533088Z","epoch_age_seconds":61422,"freshness":"FRESH","line1":"1 36036U 09059A   26145.11688117  .00000205  00000+0  79201-4 0  9991","line2":"2 36036  98.4429 332.7899 0001314  92.2354 267.8985 14.39758385870138","mean_motion":14.39758385,"eccentricity":0.0001314,"inclination_deg":98.4429,"raan_deg":332.7899,"arg_perigee_deg":92.2354,"mean_anomaly_deg":267.8985,"bstar":7.9201e-5,"rev_number":87013,"period_min":100.0167816352,"perigee_km":758.35900397854,"apogee_km":760.23472159768,"semimajor_km":7137.4338627881,"source":"CELESTRAK","updated_at":"2026-05-25T13:38:12.777198Z"}}}